QPF
0.00 0.00 0.00 0.00 0.00 0.00 0.00 0.00 0.00 0.00 0.00 0.00 0.00 0.00 0.00 0.00 0.00 0.00 0.00 0.00 0.00 0.00 0.00 0.00 0.00 0.00 0.00 0.00 0.00 0.00 0.00 0.00 0.00 0.00 0.00 0.00 0.00 0.00 0.00 0.00 0.00 0.00 0.00
0.00 0.00 0.00 0.00 0.00 0.00 0.00 0.00 0.00 0.00 0.00 0.00 0.00 0.00 0.00 0.00 0.00 0.00 0.00 0.00 0.00 0.00 0.00 0.00 0.00 0.00 0.00 0.00 0.00 0.00 0.00 0.00 0.00 0.00 0.00 0.00 0.00 0.00 0.00 0.00 0.00 0.00 0.00
0.00 0.00 0.00 0.00 0.00 0.00 0.00 0.00 0.00 0.00 0.00 0.00 0.00 0.00 0.00 0.00 0.00 0.00 0.00 0.00 0.00 0.00 0.00 0.00 0.00 0.00 0.00 0.00 0.00 0.00 0.00 0.00 0.00 0.00 0.00 0.00 0.00 0.00 0.00 0.00 0.00 0.00 0.00
0.00 0.00 0.00 0.00 0.00 0.00 0.00 0.00 0.00 0.00 0.00 0.00 0.00 0.00 0.00 0.00 0.00 0.00 0.00 0.00 0.00 0.00 0.00 0.00 0.00 0.00 0.00 0.00 0.00 0.00 0.00 0.00 0.00 0.00 0.00 0.00 0.00 0.00 0.00 0.00 0.00 0.00 0.00
0.00 0.00 0.00 0.00 0.00 0.00 0.00 0.00 0.00 0.00 0.00 0.00 0.00 0.00 0.00 0.00 0.00 0.00 0.00 0.00 0.00 0.00 0.00 0.00 0.00 0.00 0.00 0.00 0.00 0.00 0.00 0.00 0.00 0.00 0.00 0.00 0.00 0.00 0.00 0.00 0.00 0.01 0.01
0.00 0.00 0.00 0.00 0.00 0.00 0.00 0.00 0.00 0.00 0.00 0.00 0.00 0.00 0.00 0.00 0.00 0.00 0.00 0.00 0.00 0.00 0.00 0.00 0.00 0.00 0.00 0.00 0.00 0.00 0.00 0.00 0.00 0.00 0.00 0.00 0.00 0.00 0.01 0.01 0.03 0.03 0.02
0.00 0.00 0.00 0.00 0.00 0.00 0.00 0.00 0.00 0.00 0.00 0.00 0.00 0.00 0.00 0.00 0.00 0.00 0.00 0.00 0.00 0.00 0.00 0.00 0.00 0.00 0.00 0.00 0.00 0.00 0.00 0.00 0.00 0.00 0.00 0.00 0.00 0.00 0.01 0.03 0.06 0.05 0.04
0.00 0.00 0.00 0.00 0.00 0.00 0.00 0.00 0.00 0.00 0.00 0.00 0.00 0.00 0.00 0.00 0.00 0.00 0.00 0.00 0.00 0.00 0.00 0.00 0.00 0.00 0.00 0.00 0.00 0.00 0.00 0.00 0.00 0.00 0.00 0.00 0.00 0.00 0.00 0.04 0.08 0.07 0.06
0.00 0.00 0.00 0.00 0.00 0.00 0.00 0.00 0.00 0.00 0.00 0.00 0.00 0.00 0.00 0.00 0.00 0.00 0.00 0.00 0.00 0.00 0.00 0.00 0.00 0.00 0.00 0.00 0.00 0.00 0.00 0.00 0.00 0.00 0.00 0.00 0.00 0.00 0.01 0.05 0.08 0.07 0.06
0.00 0.00 0.00 0.00 0.00 0.00 0.00 0.00 0.00 0.00 0.00 0.00 0.00 0.00 0.00 0.00 0.00 0.00 0.00 0.00 0.00 0.00 0.00 0.00 0.00 0.00 0.00 0.00 0.00 0.00 0.00 0.00 0.00 0.00 0.00 0.00 0.00 0.00 0.01 0.04 0.08 0.09 0.09
0.00 0.00 0.00 0.00 0.00 0.00 0.00 0.00 0.00 0.00 0.00 0.00 0.00 0.00 0.00 0.00 0.00 0.00 0.00 0.00 0.00 0.00 0.00 0.00 0.00 0.00 0.00 0.00 0.00 0.00 0.00 0.00 0.00 0.00 0.00 0.00 0.00 0.01 0.02 0.04 0.07 0.09 0.10
0.00 0.00 0.00 0.00 0.00 0.00 0.00 0.00 0.00 0.00 0.00 0.00 0.00 0.00 0.00 0.00 0.00 0.00 0.00 0.00 0.00 0.00 0.00 0.00 0.01 0.01 0.01 0.00 0.00 0.00 0.00 0.00 0.00 0.00 0.00 0.00 0.01 0.03 0.06 0.07 0.07 0.08 0.09
0.00 0.00 0.00 0.00 0.00 0.00 0.00 0.00 0.00 0.00 0.00 0.00 0.00 0.00 0.00 0.00 0.00 0.00 0.00 0.00 0.00 0.00 0.00 0.01 0.02 0.02 0.02 0.01 0.01 0.00 0.00 0.00 0.00 0.00 0.00 0.00 0.02 0.05 0.11 0.11 0.09 0.09 0.11
0.00 0.00 0.00 0.00 0.00 0.00 0.00 0.00 0.00 0.00 0.00 0.00 0.00 0.00 0.00 0.00 0.00 0.00 0.00 0.00 0.00 0.00 0.00 0.01 0.02 0.03 0.03 0.03 0.02 0.01 0.00 0.00 0.00 0.00 0.01 0.00 0.01 0.04 0.08 0.09 0.08 0.09 0.08
0.00 0.01 0.01 0.01 0.02 0.02 0.01 0.00 0.00 0.00 0.00 0.00 0.00 0.00 0.00 0.00 0.00 0.00 0.00 0.01 0.01 0.01 0.01 0.03 0.05 0.06 0.06 0.06 0.04 0.03 0.02 0.01 0.01 0.02 0.02 0.01 0.01 0.02 0.04 0.07 0.08 0.08 0.06
0.00 0.01 0.03 0.05 0.08 0.08 0.07 0.05 0.03 0.02 0.02 0.02 0.03 0.04 0.03 0.03 0.03 0.04 0.03 0.03 0.04 0.05 0.06 0.10 0.13 0.15 0.14 0.12 0.09 0.08 0.08 0.07 0.05 0.04 0.03 0.03 0.01 0.01 0.02 0.05 0.08 0.09 0.07
0.02 0.04 0.07 0.13 0.18 0.19 0.16 0.13 0.11 0.10 0.09 0.08 0.08 0.10 0.11 0.11 0.12 0.13 0.10 0.09 0.14 0.20 0.21 0.24 0.26 0.24 0.20 0.18 0.15 0.18 0.18 0.16 0.12 0.09 0.06 0.05 0.03 0.02 0.01 0.03 0.06 0.08 0.09
0.04 0.06 0.12 0.19 0.25 0.26 0.27 0.28 0.25 0.23 0.20 0.17 0.16 0.16 0.18 0.20 0.24 0.25 0.19 0.19 0.32 0.39 0.39 0.39 0.37 0.31 0.26 0.24 0.22 0.24 0.23 0.19 0.17 0.12 0.06 0.05 0.03 0.01 0.01 0.01 0.03 0.05 0.08
0.06 0.09 0.15 0.23 0.24 0.28 0.34 0.37 0.34 0.29 0.24 0.23 0.22 0.21 0.22 0.26 0.30 0.33 0.27 0.31 0.45 0.53 0.50 0.48 0.44 0.39 0.32 0.30 0.28 0.24 0.21 0.17 0.13 0.09 0.05 0.03 0.01 0.01 0.01 0.01 0.01 0.04 0.08
0.09 0.10 0.13 0.19 0.22 0.24 0.28 0.31 0.26 0.20 0.20 0.23 0.24 0.21 0.22 0.25 0.32 0.41 0.32 0.33 0.45 0.52 0.50 0.48 0.45 0.38 0.33 0.32 0.29 0.19 0.13 0.11 0.09 0.06 0.04 0.02 0.01 0.00 0.00 0.01 0.01 0.02 0.03
0.08 0.08 0.09 0.10 0.11 0.11 0.12 0.14 0.14 0.13 0.15 0.17 0.19 0.18 0.18 0.19 0.21 0.29 0.29 0.34 0.41 0.41 0.38 0.41 0.43 0.36 0.29 0.33 0.30 0.18 0.11 0.09 0.07 0.04 0.03 0.02 0.01 0.01 0.01 0.01 0.01 0.02 0.02
0.03 0.03 0.03 0.02 0.03 0.03 0.04 0.07 0.09 0.10 0.11 0.09 0.08 0.10 0.14 0.17 0.15 0.17 0.19 0.22 0.30 0.34 0.31 0.33 0.36 0.33 0.27 0.32 0.33 0.25 0.13 0.08 0.06 0.05 0.04 0.03 0.02 0.02 0.02 0.03 0.03 0.04 0.05
0.01 0.00 0.00 0.00 0.00 0.00 0.01 0.01 0.02 0.03 0.02 0.01 0.02 0.03 0.06 0.08 0.08 0.09 0.11 0.15 0.18 0.24 0.22 0.24 0.30 0.32 0.28 0.29 0.33 0.33 0.23 0.13 0.10 0.08 0.05 0.03 0.02 0.02 0.03 0.05 0.06 0.09 0.08
0.00 0.00 0.00 0.00 0.00 0.00 0.00 0.00 0.00 0.00 0.00 0.00 0.00 0.00 0.01 0.01 0.02 0.03 0.05 0.08 0.11 0.14 0.13 0.16 0.21 0.23 0.24 0.23 0.24 0.27 0.27 0.21 0.14 0.07 0.04 0.03 0.02 0.02 0.03 0.05 0.06 0.07 0.07
0.00 0.00 0.00 0.00 0.00 0.00 0.00 0.00 0.00 0.00 0.00 0.00 0.00 0.00 0.00 0.00 0.00 0.01 0.01 0.02 0.04 0.04 0.05 0.07 0.08 0.10 0.13 0.14 0.14 0.14 0.15 0.13 0.09 0.06 0.03 0.02 0.02 0.02 0.04 0.07 0.07 0.07 0.07
0.00 0.00 0.00 0.00 0.00 0.00 0.00 0.00 0.00 0.00 0.00 0.00 0.00 0.00 0.00 0.00 0.00 0.00 0.00 0.00 0.01 0.01 0.01 0.02 0.03 0.04 0.05 0.05 0.06 0.07 0.08 0.07 0.05 0.04 0.03 0.02 0.02 0.03 0.05 0.09 0.08 0.06 0.04
MSLP
1011.13 1010.85 1010.84 1011.08 1011.49 1011.97 1012.41 1012.74 1012.91 1012.96 1012.93 1012.90 1012.93 1013.07 1013.31 1013.62 1013.96 1014.28 1014.52 1014.68 1014.75 1014.78 1014.78 1014.80 1014.85 1014.93 1015.04 1015.16 1015.26 1015.34 1015.39 1015.43 1015.46 1015.50 1015.57 1015.67 1015.79 1015.92 1016.04 1016.15 1016.25 1016.33 1016.40
1010.80 1010.66 1010.78 1011.12 1011.61 1012.13 1012.59 1012.92 1013.09 1013.13 1013.10 1013.08 1013.13 1013.29 1013.55 1013.88 1014.22 1014.52 1014.75 1014.88 1014.94 1014.95 1014.96 1014.99 1015.05 1015.15 1015.27 1015.37 1015.45 1015.50 1015.51 1015.51 1015.52 1015.56 1015.63 1015.73 1015.85 1015.97 1016.08 1016.17 1016.24 1016.30 1016.37
1010.51 1010.51 1010.73 1011.16 1011.71 1012.27 1012.75 1013.08 1013.26 1013.31 1013.30 1013.30 1013.38 1013.55 1013.82 1014.13 1014.45 1014.72 1014.90 1014.99 1015.02 1015.02 1015.03 1015.08 1015.16 1015.28 1015.41 1015.51 1015.58 1015.60 1015.60 1015.58 1015.58 1015.62 1015.70 1015.80 1015.92 1016.04 1016.13 1016.20 1016.24 1016.29 1016.35
1010.29 1010.40 1010.71 1011.21 1011.80 1012.38 1012.87 1013.22 1013.41 1013.48 1013.49 1013.52 1013.62 1013.80 1014.06 1014.35 1014.63 1014.84 1014.97 1015.02 1015.02 1015.01 1015.02 1015.08 1015.19 1015.33 1015.48 1015.59 1015.66 1015.68 1015.67 1015.65 1015.66 1015.70 1015.79 1015.91 1016.03 1016.13 1016.20 1016.24 1016.26 1016.28 1016.34
1010.17 1010.36 1010.73 1011.26 1011.87 1012.46 1012.95 1013.30 1013.50 1013.59 1013.63 1013.69 1013.81 1014.00 1014.24 1014.50 1014.73 1014.89 1014.96 1014.97 1014.95 1014.93 1014.95 1015.04 1015.18 1015.34 1015.51 1015.63 1015.71 1015.73 1015.73 1015.72 1015.74 1015.80 1015.90 1016.03 1016.14 1016.23 1016.28 1016.29 1016.28 1016.28 1016.33
1010.17 1010.39 1010.78 1011.32 1011.92 1012.49 1012.97 1013.31 1013.51 1013.62 1013.68 1013.77 1013.91 1014.10 1014.34 1014.58 1014.76 1014.88 1014.91 1014.89 1014.85 1014.83 1014.87 1014.98 1015.14 1015.33 1015.51 1015.65 1015.73 1015.76 1015.76 1015.77 1015.80 1015.88 1016.00 1016.12 1016.23 1016.30 1016.32 1016.30 1016.26 1016.24 1016.28
1010.28 1010.50 1010.88 1011.39 1011.95 1012.48 1012.92 1013.24 1013.43 1013.55 1013.63 1013.74 1013.90 1014.11 1014.35 1014.57 1014.74 1014.83 1014.84 1014.81 1014.76 1014.75 1014.81 1014.93 1015.11 1015.31 1015.50 1015.63 1015.71 1015.74 1015.75 1015.77 1015.81 1015.90 1016.02 1016.14 1016.24 1016.29 1016.28 1016.22 1016.16 1016.11 1016.14
1010.48 1010.68 1011.02 1011.48 1011.98 1012.45 1012.83 1013.11 1013.28 1013.39 1013.49 1013.62 1013.80 1014.03 1014.28 1014.51 1014.67 1014.76 1014.77 1014.73 1014.70 1014.70 1014.76 1014.89 1015.07 1015.27 1015.44 1015.57 1015.63 1015.66 1015.66 1015.67 1015.72 1015.81 1015.92 1016.04 1016.12 1016.15 1016.12 1016.03 1015.94 1015.87 1015.88
1010.73 1010.90 1011.20 1011.60 1012.02 1012.42 1012.73 1012.95 1013.09 1013.18 1013.28 1013.43 1013.64 1013.89 1014.16 1014.40 1014.58 1014.67 1014.69 1014.67 1014.64 1014.65 1014.71 1014.83 1015.00 1015.18 1015.33 1015.42 1015.47 1015.47 1015.45 1015.45 1015.49 1015.57 1015.68 1015.78 1015.85 1015.86 1015.80 1015.70 1015.59 1015.51 1015.50
1010.98 1011.13 1011.40 1011.74 1012.10 1012.41 1012.66 1012.81 1012.91 1012.98 1013.07 1013.22 1013.44 1013.72 1014.00 1014.26 1014.46 1014.57 1014.60 1014.59 1014.57 1014.57 1014.62 1014.73 1014.87 1015.01 1015.13 1015.19 1015.20 1015.18 1015.14 1015.12 1015.13 1015.20 1015.29 1015.37 1015.43 1015.43 1015.36 1015.25 1015.13 1015.04 1015.03
1011.19 1011.34 1011.59 1011.89 1012.19 1012.45 1012.62 1012.72 1012.77 1012.81 1012.89 1013.03 1013.26 1013.54 1013.83 1014.11 1014.31 1014.44 1014.48 1014.47 1014.45 1014.44 1014.47 1014.55 1014.66 1014.77 1014.84 1014.87 1014.85 1014.80 1014.73 1014.69 1014.68 1014.72 1014.78 1014.85 1014.89 1014.89 1014.82 1014.72 1014.61 1014.53 1014.51
1011.32 1011.50 1011.76 1012.04 1012.30 1012.51 1012.63 1012.68 1012.69 1012.70 1012.75 1012.89 1013.10 1013.37 1013.66 1013.93 1014.14 1014.26 1014.30 1014.29 1014.25 1014.23 1014.24 1014.29 1014.36 1014.44 1014.49 1014.49 1014.45 1014.38 1014.29 1014.22 1014.18 1014.19 1014.23 1014.27 1014.30 1014.29 1014.24 1014.15 1014.06 1013.99 1013.99
1011.35 1011.58 1011.86 1012.14 1012.38 1012.56 1012.65 1012.67 1012.65 1012.64 1012.67 1012.78 1012.96 1013.21 1013.48 1013.72 1013.91 1014.02 1014.05 1014.02 1013.97 1013.92 1013.91 1013.94 1013.99 1014.05 1014.08 1014.08 1014.03 1013.95 1013.85 1013.76 1013.69 1013.66 1013.67 1013.68 1013.69 1013.68 1013.64 1013.58 1013.51 1013.47 1013.48
1011.27 1011.55 1011.86 1012.15 1012.40 1012.57 1012.65 1012.67 1012.63 1012.60 1012.61 1012.69 1012.84 1013.04 1013.27 1013.47 1013.62 1013.70 1013.71 1013.66 1013.59 1013.53 1013.50 1013.52 1013.56 1013.62 1013.66 1013.67 1013.63 1013.56 1013.46 1013.35 1013.26 1013.19 1013.15 1013.12 1013.11 1013.09 1013.05 1013.00 1012.97 1012.95 1012.98
1011.11 1011.43 1011.75 1012.06 1012.31 1012.50 1012.59 1012.61 1012.59 1012.55 1012.54 1012.59 1012.69 1012.84 1013.01 1013.16 1013.27 1013.31 1013.28 1013.21 1013.13 1013.06 1013.03 1013.04 1013.09 1013.17 1013.24 1013.28 1013.27 1013.22 1013.12 1013.01 1012.88 1012.77 1012.68 1012.61 1012.55 1012.50 1012.46 1012.42 1012.40 1012.41 1012.45
1010.90 1011.21 1011.54 1011.85 1012.11 1012.31 1012.43 1012.48 1012.48 1012.45 1012.44 1012.45 1012.51 1012.60 1012.70 1012.79 1012.84 1012.83 1012.78 1012.69 1012.60 1012.53 1012.50 1012.53 1012.60 1012.70 1012.81 1012.89 1012.93 1012.91 1012.83 1012.71 1012.56 1012.40 1012.25 1012.11 1012.00 1011.91 1011.84 1011.80 1011.78 1011.79 1011.84
1010.69 1010.96 1011.25 1011.54 1011.81 1012.02 1012.18 1012.27 1012.30 1012.30 1012.28 1012.27 1012.28 1012.31 1012.34 1012.36 1012.35 1012.30 1012.22 1012.12 1012.02 1011.95 1011.94 1011.98 1012.08 1012.22 1012.38 1012.51 1012.59 1012.60 1012.55 1012.42 1012.24 1012.04 1011.82 1011.62 1011.44 1011.30 1011.19 1011.11 1011.07 1011.08 1011.12
1010.52 1010.72 1010.94 1011.19 1011.44 1011.67 1011.86 1011.99 1012.06 1012.09 1012.08 1012.05 1012.02 1011.98 1011.95 1011.90 1011.83 1011.74 1011.63 1011.51 1011.41 1011.35 1011.35 1011.41 1011.54 1011.71 1011.91 1012.08 1012.21 1012.26 1012.22 1012.10 1011.91 1011.66 1011.38 1011.11 1010.86 1010.65 1010.48 1010.36 1010.29 1010.27 1010.30
1010.43 1010.52 1010.66 1010.85 1011.08 1011.31 1011.52 1011.69 1011.81 1011.86 1011.86 1011.82 1011.75 1011.66 1011.55 1011.44 1011.32 1011.18 1011.04 1010.91 1010.80 1010.74 1010.74 1010.82 1010.96 1011.16 1011.39 1011.60 1011.76 1011.85 1011.84 1011.73 1011.52 1011.24 1010.92 1010.58 1010.26 1009.98 1009.75 1009.58 1009.47 1009.42 1009.41
1010.42 1010.41 1010.45 1010.58 1010.76 1010.99 1011.22 1011.42 1011.58 1011.66 1011.68 1011.62 1011.51 1011.37 1011.21 1011.03 1010.85 1010.67 1010.50 1010.34 1010.22 1010.15 1010.14 1010.21 1010.36 1010.57 1010.81 1011.05 1011.25 1011.37 1011.39 1011.30 1011.09 1010.80 1010.44 1010.06 1009.69 1009.35 1009.06 1008.84 1008.68 1008.59 1008.55
1010.49 1010.37 1010.33 1010.39 1010.53 1010.75 1010.99 1011.23 1011.41 1011.53 1011.55 1011.49 1011.36 1011.17 1010.95 1010.71 1010.48 1010.24 1010.03 1009.84 1009.68 1009.59 1009.56 1009.61 1009.74 1009.95 1010.20 1010.45 1010.68 1010.83 1010.89 1010.82 1010.64 1010.35 1009.98 1009.58 1009.17 1008.79 1008.47 1008.20 1008.01 1007.88 1007.80
1010.59 1010.40 1010.29 1010.30 1010.41 1010.61 1010.86 1011.12 1011.33 1011.47 1011.51 1011.45 1011.30 1011.08 1010.81 1010.52 1010.22 1009.94 1009.66 1009.42 1009.22 1009.08 1009.01 1009.02 1009.13 1009.31 1009.56 1009.83 1010.08 1010.27 1010.36 1010.34 1010.19 1009.93 1009.58 1009.18 1008.76 1008.37 1008.02 1007.74 1007.51 1007.36 1007.25
1010.69 1010.46 1010.31 1010.28 1010.36 1010.55 1010.81 1011.09 1011.33 1011.50 1011.56 1011.50 1011.34 1011.10 1010.79 1010.45 1010.10 1009.75 1009.41 1009.11 1008.84 1008.63 1008.50 1008.47 1008.53 1008.69 1008.92 1009.19 1009.46 1009.69 1009.84 1009.87 1009.77 1009.56 1009.25 1008.88 1008.48 1008.10 1007.76 1007.47 1007.24 1007.07 1006.95
1010.74 1010.52 1010.35 1010.30 1010.37 1010.56 1010.82 1011.11 1011.38 1011.57 1011.65 1011.62 1011.46 1011.20 1010.87 1010.49 1010.08 1009.67 1009.26 1008.87 1008.52 1008.24 1008.04 1007.94 1007.95 1008.07 1008.28 1008.56 1008.86 1009.13 1009.32 1009.42 1009.39 1009.24 1008.99 1008.67 1008.33 1007.98 1007.66 1007.40 1007.18 1007.01 1006.89
1010.76 1010.55 1010.39 1010.33 1010.39 1010.57 1010.83 1011.14 1011.42 1011.64 1011.75 1011.74 1011.60 1011.35 1011.00 1010.59 1010.13 1009.65 1009.16 1008.69 1008.25 1007.88 1007.59 1007.42 1007.37 1007.46 1007.66 1007.94 1008.26 1008.57 1008.82 1008.98 1009.03 1008.95 1008.78 1008.53 1008.25 1007.96 1007.69 1007.46 1007.28 1007.13 1007.02
1010.74 1010.56 1010.41 1010.35 1010.40 1010.57 1010.83 1011.13 1011.42 1011.66 1011.80 1011.82 1011.70 1011.46 1011.11 1010.68 1010.18 1009.64 1009.07 1008.52 1007.99 1007.52 1007.16 1006.91 1006.80 1006.85 1007.02 1007.31 1007.65 1008.00 1008.31 1008.53 1008.66 1008.66 1008.57 1008.40 1008.20 1007.98 1007.78 1007.61 1007.47 1007.36 1007.27
Thickness
5823 5822 5819 5814 5810 5807 5804 5801 5799 5797 5795 5792 5790 5788 5786 5785 5783 5781 5779 5777 5775 5773 5772 5770 5768 5767 5765 5763 5762 5761 5759 5758 5757 5755 5754 5752 5751 5750 5749 5748 5747 5746 5745
5831 5825 5820 5815 5811 5807 5803 5800 5798 5796 5794 5791 5790 5788 5786 5784 5782 5780 5778 5777 5774 5772 5771 5769 5767 5766 5764 5762 5760 5759 5758 5756 5755 5755 5754 5752 5751 5750 5749 5748 5747 5746 5745
5832 5826 5821 5816 5811 5807 5803 5800 5797 5795 5793 5790 5789 5787 5785 5783 5781 5779 5778 5776 5774 5772 5770 5768 5767 5765 5763 5761 5759 5757 5756 5755 5754 5754 5753 5752 5751 5750 5749 5748 5747 5746 5745
5831 5825 5821 5816 5811 5807 5803 5800 5797 5794 5792 5789 5787 5786 5784 5782 5780 5779 5777 5775 5773 5771 5769 5768 5766 5765 5763 5761 5759 5757 5755 5754 5753 5752 5751 5751 5750 5750 5749 5748 5747 5746 5745
5829 5824 5820 5815 5810 5806 5802 5798 5795 5793 5790 5788 5786 5784 5782 5781 5779 5777 5775 5773 5772 5770 5769 5767 5766 5764 5763 5761 5759 5757 5755 5753 5752 5751 5750 5750 5749 5749 5748 5747 5746 5745 5744
5826 5822 5818 5814 5809 5804 5800 5797 5794 5791 5789 5787 5785 5783 5781 5779 5777 5775 5774 5772 5770 5769 5768 5767 5765 5764 5762 5761 5759 5757 5755 5753 5752 5750 5750 5749 5748 5748 5748 5747 5746 5745 5744
5825 5821 5817 5812 5807 5803 5799 5796 5793 5791 5788 5786 5784 5781 5779 5777 5775 5774 5772 5770 5769 5768 5767 5765 5764 5763 5762 5760 5759 5757 5755 5754 5752 5750 5749 5748 5748 5748 5747 5747 5747 5746 5745
5825 5820 5815 5811 5806 5802 5798 5795 5792 5790 5787 5785 5783 5780 5778 5776 5774 5772 5771 5770 5768 5766 5765 5764 5763 5762 5761 5760 5758 5757 5755 5754 5753 5751 5749 5748 5748 5747 5747 5748 5748 5747 5746
5823 5818 5814 5810 5806 5802 5798 5794 5791 5789 5786 5784 5781 5779 5777 5775 5773 5772 5770 5769 5768 5766 5765 5763 5762 5761 5760 5759 5758 5757 5756 5754 5753 5752 5750 5749 5748 5748 5748 5749 5749 5749 5747
5819 5816 5812 5809 5805 5801 5797 5794 5791 5788 5785 5783 5780 5778 5776 5774 5772 5771 5770 5768 5767 5766 5764 5762 5761 5760 5759 5758 5757 5756 5755 5754 5754 5752 5751 5751 5750 5749 5749 5749 5750 5750 5749
5815 5813 5810 5807 5803 5800 5796 5793 5790 5787 5785 5782 5780 5778 5776 5773 5771 5769 5768 5767 5765 5764 5763 5762 5760 5759 5758 5757 5756 5755 5754 5754 5753 5753 5753 5752 5752 5751 5751 5751 5751 5751 5750
5811 5810 5808 5804 5801 5797 5794 5791 5789 5786 5784 5782 5780 5777 5775 5773 5770 5768 5766 5765 5764 5763 5762 5761 5760 5759 5758 5757 5756 5755 5754 5754 5753 5753 5753 5754 5753 5753 5753 5753 5753 5753 5752
5811 5806 5804 5800 5796 5793 5790 5787 5785 5783 5781 5779 5777 5775 5772 5770 5768 5766 5764 5763 5762 5761 5760 5760 5759 5759 5757 5756 5755 5754 5753 5752 5752 5752 5753 5754 5754 5754 5754 5754 5755 5754 5754
5804 5801 5798 5795 5791 5788 5785 5782 5780 5779 5777 5775 5773 5771 5768 5766 5764 5763 5762 5761 5759 5758 5758 5757 5757 5757 5757 5756 5755 5753 5752 5752 5752 5751 5752 5753 5753 5754 5754 5755 5756 5756 5755
5800 5796 5793 5789 5786 5782 5779 5776 5775 5774 5772 5770 5768 5766 5763 5762 5760 5759 5759 5758 5757 5756 5755 5754 5754 5754 5754 5754 5753 5752 5751 5751 5751 5750 5750 5752 5752 5753 5753 5754 5755 5756 5756
5797 5793 5790 5785 5781 5777 5773 5771 5770 5768 5767 5764 5763 5762 5760 5758 5757 5756 5755 5755 5754 5753 5752 5751 5750 5749 5748 5748 5748 5748 5748 5748 5748 5748 5748 5749 5750 5751 5751 5752 5754 5755 5756
5793 5789 5784 5780 5776 5772 5769 5767 5764 5761 5759 5757 5757 5756 5755 5754 5752 5751 5750 5751 5750 5749 5747 5746 5744 5741 5740 5740 5740 5741 5742 5743 5744 5744 5745 5745 5747 5748 5749 5750 5751 5753 5754
5789 5784 5780 5777 5773 5768 5765 5762 5760 5757 5754 5753 5752 5751 5750 5748 5746 5746 5745 5746 5746 5744 5743 5741 5739 5735 5734 5733 5733 5734 5736 5738 5739 5740 5741 5742 5743 5745 5746 5748 5749 5750 5751
5786 5780 5775 5772 5768 5765 5762 5759 5757 5754 5752 5750 5748 5747 5746 5744 5742 5742 5742 5742 5742 5740 5739 5739 5736 5732 5729 5728 5728 5729 5730 5732 5733 5735 5737 5738 5740 5742 5743 5745 5746 5747 5748
5781 5777 5772 5768 5765 5762 5758 5755 5752 5749 5748 5746 5745 5743 5742 5740 5739 5739 5739 5740 5739 5737 5736 5736 5734 5730 5728 5725 5723 5725 5727 5727 5727 5729 5732 5735 5737 5739 5741 5742 5743 5744 5746
5774 5770 5767 5763 5760 5755 5751 5747 5744 5742 5742 5740 5739 5738 5737 5735 5734 5734 5734 5734 5734 5733 5733 5733 5731 5727 5725 5722 5716 5716 5719 5722 5723 5725 5727 5729 5732 5735 5736 5738 5739 5740 5741
5768 5764 5760 5757 5753 5750 5746 5743 5740 5738 5736 5734 5732 5730 5729 5728 5727 5727 5727 5727 5727 5726 5727 5727 5725 5722 5721 5718 5712 5707 5706 5710 5716 5721 5722 5723 5726 5729 5730 5732 5734 5735 5736
5760 5758 5755 5751 5748 5744 5740 5736 5732 5729 5726 5724 5722 5721 5721 5720 5720 5719 5720 5720 5720 5719 5720 5720 5719 5716 5715 5714 5711 5705 5699 5700 5705 5711 5715 5717 5719 5721 5724 5726 5727 5729 5729
5755 5753 5749 5745 5741 5737 5734 5729 5724 5718 5714 5713 5712 5711 5711 5711 5710 5711 5711 5712 5712 5712 5713 5714 5714 5713 5712 5710 5708 5707 5704 5703 5698 5700 5706 5709 5711 5714 5716 5718 5720 5721 5721
5749 5745 5741 5738 5734 5731 5728 5724 5718 5713 5710 5707 5704 5702 5701 5701 5701 5701 5702 5703 5704 5706 5707 5708 5709 5709 5708 5707 5705 5703 5699 5697 5697 5695 5695 5699 5702 5706 5708 5709 5711 5712 5712
5741 5738 5735 5732 5729 5726 5723 5719 5714 5709 5705 5700 5697 5694 5693 5691 5691 5692 5693 5694 5696 5698 5700 5702 5703 5703 5703 5703 5702 5700 5697 5694 5693 5691 5691 5691 5691 5695 5698 5700 5701 5702 5703